Weather History for Kalamazoo, MI

Change the Weather History Date:

Saturday, January 5, 2013

  Actual Average Record
Temperature  
Mean Temperature 29 °F 25 °F  
Max Temperature 37 °F 31 °F 50 °F (2007)
Min Temperature 20 °F 18 °F -14 °F (1999)
Degree Days  
Heating Degree Days 36 40  
Month to date heating degree days 204 200  
Since 1 July heating degree days 2506 2651  
Cooling Degree Days 0 0  
Month to date cooling degree days 0 0  
Year to date cooling degree days 0 0  
Moisture  
Dew Point 25 °F    
Average Humidity 78    
Maximum Humidity 92    
Minimum Humidity 64    
Precipitation  
Precipitation T in 0.06 in 0.72 in (1955)
Month to date precipitation T 0.31  
Year to date precipitation T 0.31  
Sea Level Pressure  
Sea Level Pressure 30.15 in    
Wind  
Wind Speed 10 mph (SSW)    
Max Wind Speed 17 mph    
Max Gust Speed 24 mph    
Visibility 5 miles    
Events Snow    
T = Trace of Precipitation, MM = Missing Value Source: NWS Daily Summary

Daily Weather History Graph

Daily Weather History Graph

Search for Another Location

Airport:

Trip Planner

Search our weather history database for the weather conditions in past years. The results will help you decide how hot, cold, wet, or windy it might be!

Date:

Astronomy

Jan. 05, 2013 Rise Set
Actual Time 8:11 AM EST 5:24 PM EST
Civil Twilight 7:39 AM EST 5:56 PM EST
Nautical Twilight 7:04 AM EST 6:31 PM EST
Astronomical Twilight 6:30 AM EST 7:05 PM EST
Moon 1:12 AM EST (1/5) 12:17 PM EST (1/5)
Length of Visible Light 10h 16m
Length of Day
9h 13m
Last Quarter, 44% of the Moon is Illuminated
Jan 5
Last Quarter
Jan 11
New
Jan 18
First Quarter
Jan 26
Full
Feb 3
Last Quarter

Hourly Weather History & Observations

Time (EST) Temp. Windchill Dew Point Humidity Pressure Visibility Wind Dir Wind Speed Gust Speed Precip Events Conditions
12:53 AM 23.0 °F 14.7 °F 19.9 °F 88% 30.24 in 6.0 mi SW 6.9 mph - N/A   Partly Cloudy
1:24 AM 24.8 °F 16.1 °F 19.4 °F 80% 30.20 in 6.0 mi SW 8.1 mph - N/A   Mostly Cloudy
1:53 AM 24.1 °F 16.0 °F 21.0 °F 88% 30.25 in 6.0 mi SSW 6.9 mph - N/A   Mostly Cloudy
2:53 AM 24.1 °F - 21.0 °F 88% 30.25 in 6.0 mi Calm Calm - N/A   Mostly Cloudy
3:08 AM 21.2 °F 16.4 °F 19.4 °F 93% 30.22 in 6.0 mi SSW 3.5 mph - N/A   Scattered Clouds
3:53 AM 21.9 °F 15.7 °F 19.0 °F 89% 30.26 in 5.0 mi South 4.6 mph - N/A   Partly Cloudy
4:53 AM 23.0 °F 13.9 °F 19.4 °F 86% 30.23 in 5.0 mi SSW 8.1 mph - N/A   Mostly Cloudy
5:53 AM 24.1 °F 15.2 °F 21.0 °F 88% 30.27 in 6.0 mi SSW 8.1 mph - N/A   Overcast
6:53 AM 21.9 °F 15.7 °F 19.0 °F 89% 30.26 in 5.0 mi SSE 4.6 mph - N/A   Scattered Clouds
7:04 AM 21.2 °F 13.6 °F 19.4 °F 93% 30.21 in 5.0 mi South 5.8 mph - N/A   Mostly Cloudy
7:53 AM 23.0 °F 13.9 °F 19.9 °F 88% 30.26 in 5.0 mi South 8.1 mph - N/A   Overcast
8:25 AM 21.2 °F 12.6 °F 19.4 °F 93% 30.22 in 4.0 mi South 6.9 mph - N/A   Scattered Clouds
8:53 AM 21.9 °F 15.7 °F 19.0 °F 89% 30.26 in 4.0 mi South 4.6 mph - N/A   Clear
9:53 AM 24.1 °F 13.7 °F 19.9 °F 84% 30.26 in 5.0 mi South 10.4 mph - N/A   Clear
10:53 AM 27.0 °F 15.2 °F 21.0 °F 78% 30.27 in 5.0 mi South 15.0 mph - N/A   Haze
11:53 AM 30.0 °F 21.7 °F 21.9 °F 72% 30.22 in 5.0 mi South 9.2 mph - N/A   Haze
12:53 PM 33.1 °F 24.4 °F 24.1 °F 70% 30.19 in 6.0 mi South 11.5 mph - N/A   Haze
1:53 PM 34.0 °F 26.0 °F 25.0 °F 70% 30.15 in 7.0 mi South 10.4 mph - N/A   Clear
2:53 PM 36.0 °F 27.1 °F 25.0 °F 64% 30.12 in 8.0 mi SSW 13.8 mph - N/A   Clear
3:53 PM 36.0 °F 27.5 °F 26.1 °F 67% 30.11 in 8.0 mi SSW 12.7 mph - N/A   Mostly Cloudy
4:53 PM 34.0 °F 24.6 °F 25.0 °F 70% 30.11 in 8.0 mi SSW 13.8 mph - N/A   Overcast
5:53 PM 33.1 °F 23.4 °F 25.0 °F 72% 30.10 in 9.0 mi SW 13.8 mph - N/A   Overcast
6:20 PM 33.8 °F 24.3 °F 26.6 °F 75% 30.06 in 2.0 mi SSW 13.8 mph - 0.00 in Snow Light Snow
6:44 PM 32.0 °F 23.0 °F 28.4 °F 87% 30.06 in 3.0 mi SSW 11.5 mph - 0.00 in Snow Light Snow
6:53 PM 32.0 °F 23.0 °F 28.0 °F 85% 30.10 in 3.0 mi SSW 11.5 mph - 0.00 in Snow Light Snow
7:11 PM 32.0 °F 23.0 °F 28.4 °F 87% 30.06 in 1.8 mi SSW 11.5 mph - 0.00 in Snow Light Snow
7:46 PM 32.0 °F 24.2 °F 30.2 °F 93% 30.05 in 1.8 mi South 9.2 mph - 0.00 in Snow Light Snow
7:53 PM 32.0 °F 24.2 °F 30.0 °F 92% 30.09 in 1.5 mi South 9.2 mph - 0.00 in Snow Light Snow
8:27 PM 32.0 °F 23.0 °F 30.2 °F 93% 30.05 in 2.5 mi South 11.5 mph - 0.00 in   Overcast
8:34 PM 32.0 °F 22.5 °F 30.2 °F 93% 30.04 in 3.0 mi South 12.7 mph - 0.00 in   Overcast
8:53 PM 32.0 °F 23.0 °F 30.0 °F 92% 30.07 in 3.0 mi South 11.5 mph - 0.00 in   Overcast
9:53 PM 32.0 °F 21.2 °F 30.0 °F 92% 30.06 in 3.0 mi South 16.1 mph - N/A   Overcast
10:53 PM 33.1 °F 23.4 °F 30.9 °F 92% 30.04 in 3.0 mi SSW 13.8 mph - 0.00 in   Overcast
11:19 PM 33.8 °F 24.8 °F 30.2 °F 87% 30.00 in 4.0 mi SSW 12.7 mph - N/A   Overcast
11:43 PM 33.8 °F 24.3 °F 30.2 °F 87% 29.99 in 6.0 mi SSW 13.8 mph - N/A   Overcast
11:53 PM 34.0 °F 25.0 °F 30.0 °F 85% 30.02 in 6.0 mi SSW 12.7 mph - N/A   Overcast